| Date | Time | Temp. (oF) | Dew Point (oF) | Rel. Hum. (%) | Press. (in.) | Wind Dir. | Wind Speed (mph) | Hourly Rainfall (in.) |
|
|---|---|---|---|---|---|---|---|---|---|
| 1 | 11/16 | 00:00 | 45 | 39 | 80 | 29.99 | S | 3 | 0.00 |
| 2 | 11/15 | 23:00 | 44 | 37 | 79 | 29.99 | E | 1 | 0.00 |
| 3 | 11/15 | 22:00 | 45 | 37 | 75 | 30.03 | ESE | 1 | 0.00 |
| 4 | 11/15 | 21:00 | 45 | 36 | 73 | 30.04 | E | 2 | 0.00 |
| 5 | 11/15 | 20:00 | 45 | 35 | 70 | 30.05 | ESE | 1 | 0.00 |
| 6 | 11/15 | 19:00 | 46 | 35 | 67 | 30.06 | ESE | 1 | 0.00 |
| 7 | 11/15 | 18:00 | 46 | 35 | 66 | 30.06 | SE | 4 | 0.00 |
| 8 | 11/15 | 17:00 | 47 | 34 | 61 | 30.07 | SE | 7 | 0.00 |
| 9 | 11/15 | 16:00 | 48 | 33 | 57 | 30.08 | SSE | 4 | 0.00 |
| 10 | 11/15 | 15:00 | 49 | 33 | 54 | 30.10 | SSE | 4 | 0.00 |
| 11 | 11/15 | 14:00 | 50 | 33 | 54 | 30.11 | SE | 2 | 0.00 |
| 12 | 11/15 | 13:00 | 50 | 33 | 52 | 30.14 | E | 3 | 0.00 |
| 13 | 11/15 | 12:00 | 49 | 33 | 55 | 30.17 | ESE | 3 | 0.00 |
| 14 | 11/15 | 11:00 | 46 | 34 | 65 | 30.22 | ESE | 4 | 0.00 |
| 15 | 11/15 | 10:00 | 42 | 33 | 72 | 30.25 | E | 5 | 0.00 |
| 16 | 11/15 | 09:00 | 37 | 34 | 90 | 30.26 | ENE | 4 | 0.00 |
| 17 | 11/15 | 08:00 | 30 | 30 | 100 | 30.28 | ENE | 1 | 0.00 |
| 18 | miss | miss | miss | miss | miss | miss | miss | miss | |
| 19 | 11/14 | 12:23 | 45 | 32 | 61 | 30.29 | NW | 7 | 0.00 |
| 20 | miss | miss | miss | miss | miss | miss | miss | miss | |
| 21 | 11/14 | 12:21 | 45 | 32 | 62 | 30.29 | NW | 9 | 0.00 |
| 22 | miss | miss | miss | miss | miss | miss | miss | miss | |
| 23 | 11/14 | 12:19 | 45 | 33 | 63 | 30.29 | NNW | 7 | 0.00 |
| 24 | miss | miss | miss | miss | miss | miss | miss | miss | |
| 25 | 11/14 | 12:17 | 45 | 33 | 64 | 30.30 | N | 6 | 0.00 |
| 26 | miss | miss | miss | miss | miss | miss | miss | miss | |
| 27 | 11/14 | 12:17 | 45 | 33 | 64 | 30.30 | N | 6 | 0.00 |
| 28 | miss | miss | miss | miss | miss | miss | miss | miss | |
| 29 | 11/14 | 12:17 | 45 | 33 | 64 | 30.30 | N | 6 | 0.00 |
| 30 | miss | miss | miss | miss | miss | miss | miss | miss | |
| 31 | 11/14 | 12:17 | 45 | 33 | 64 | 30.30 | N | 6 | 0.00 |
| 32 | miss | miss | miss | miss | miss | miss | miss | miss | |
| 33 | 11/14 | 12:17 | 45 | 33 | 64 | 30.30 | N | 6 | 0.00 |
| 34 | miss | miss | miss | miss | miss | miss | miss | miss | |
| 35 | 11/14 | 12:17 | 45 | 33 | 64 | 30.30 | N | 6 | 0.00 |
| 36 | miss | miss | miss | miss | miss | miss | miss | miss | |
| 37 | 11/14 | 12:00 | 45 | 33 | 64 | 30.30 | NNW | 9 | 0.00 |
| 38 | 11/14 | 11:00 | 44 | 32 | 65 | 30.33 | NW | 5 | 0.00 |
| 39 | 11/14 | 10:00 | 44 | 35 | 73 | 30.34 | NW | 7 | 0.00 |
| 40 | 11/14 | 09:00 | 42 | 36 | 82 | 30.34 | W | 4 | 0.00 |
| 41 | 11/14 | 08:00 | 40 | 36 | 88 | 30.34 | W | 3 | 0.00 |
| 42 | 11/14 | 07:00 | 39 | 36 | 91 | 30.33 | NW | 4 | 0.00 |
| 43 | 11/14 | 06:00 | 37 | 36 | 100 | 30.32 | W | 2 | 0.00 |
| 44 | 11/14 | 05:00 | 36 | 36 | 100 | 30.31 | W | 1 | 0.00 |
| 45 | 11/14 | 04:00 | 36 | 36 | 100 | 30.31 | W | 1 | 0.00 |
| 46 | 11/14 | 03:00 | 35 | 35 | 100 | 30.31 | W | 2 | 0.00 |
| 47 | 11/14 | 02:00 | 35 | 35 | 100 | 30.31 | W | 2 | 0.00 |
| 48 | 11/14 | 01:00 | 34 | 33 | 100 | 30.31 | NNW | 1 | 0.00 |
| 49 | 11/14 | 00:00 | 34 | 33 | 100 | 30.32 | NNW | 2 | 0.00 |
| 50 | 11/13 | 23:00 | 33 | 32 | 100 | 30.31 | NNW | 0 | 0.00 |
| 51 | 11/13 | 22:00 | 32 | 32 | 100 | 30.32 | NNW | 2 | 0.00 |
| 52 | 11/13 | 21:00 | 34 | 33 | 100 | 30.31 | NNW | 1 | 0.00 |
| 53 | 11/13 | 20:00 | 36 | 36 | 100 | 30.31 | NNW | 1 | 0.00 |
| 54 | 11/13 | 19:00 | 38 | 37 | 98 | 30.31 | NNW | 0 | 0.00 |
| 55 | 11/13 | 18:00 | 41 | 38 | 92 | 30.30 | NNW | 1 | 0.00 |
| 56 | 11/13 | 17:00 | 43 | 39 | 87 | 30.28 | NNW | 1 | 0.00 |
| 57 | 11/13 | 16:00 | 43 | 38 | 85 | 30.28 | N | 4 | 0.00 |
| 58 | 11/13 | 15:00 | 43 | 38 | 83 | 30.27 | NNW | 4 | 0.00 |
| 59 | 11/13 | 14:00 | 42 | 38 | 86 | 30.27 | NW | 7 | 0.00 |
| 60 | 11/13 | 13:00 | 41 | 37 | 86 | 30.28 | W | 7 | 0.00 |
| 61 | 11/13 | 12:00 | 38 | 34 | 88 | 30.30 | NW | 4 | 0.00 |
| 62 | 11/13 | 11:00 | 38 | 36 | 93 | 30.32 | NNW | 5 | 0.00 |
| 63 | 11/13 | 10:00 | 36 | 34 | 94 | 30.33 | NNW | 3 | 0.00 |
| 64 | 11/13 | 09:00 | 35 | 34 | 98 | 30.33 | NNW | 4 | 0.00 |
| 65 | 11/13 | 08:00 | 34 | 33 | 100 | 30.33 | N | 6 | 0.00 |
| 66 | 11/13 | 07:00 | 35 | 35 | 100 | 30.33 | NW | 3 | 0.01 |
| 67 | 11/13 | 06:00 | 35 | 34 | 99 | 30.32 | NE | 2 | 0.00 |
| 68 | 11/13 | 05:00 | 35 | 34 | 99 | 30.31 | NE | 2 | 0.03 |
| 69 | 11/13 | 04:00 | 35 | 33 | 95 | 30.31 | NE | 2 | 0.05 |